,,PA_Meas_PMT16A,,PR_Meas_QMR101_102,,RH_Meas_QMH101,,SR_Meas_QMS101,,TA_Meas_QMH101,,GenWind,,GenWind,
time,status,PA,status,PR,status,RH,status,SR,status,TA,status,DirAvg,status,SpdAvg,
2012-02-06, 00:00:05,VALID,918.44,VALID,0,VALID,97.5797,VALID,0,VALID,19.0008,VALID,157,VALID,1.14805,
2012-02-06, 00:01:05,VALID,918.411,VALID,0,VALID,97.5492,VALID,0,VALID,19.0023,VALID,128,VALID,1.33164,
2012-02-06, 00:02:05,VALID,918.391,VALID,0,VALID,97.5416,VALID,0,VALID,18.9814,VALID,138,VALID,1.4543,
2012-02-06, 00:03:05,VALID,918.346,VALID,0,VALID,97.5569,VALID,0,VALID,19.0008,VALID,140,VALID,1.05469,
2012-02-06, 00:04:05,VALID,918.361,VALID,0,VALID,97.5873,VALID,0,VALID,19.0008,VALID,129,VALID,1.11211,
2012-02-06, 00:05:05,VALID,918.315,VALID,0,VALID,97.5797,VALID,0,VALID,19.0008,VALID,132,VALID,1.33594,
2012-02-06, 00:06:05,VALID,918.287,VALID,0,VALID,97.6026,VALID,0,VALID,19.0398,VALID,135,VALID,1.41836,
2012-02-06, 00:07:05,VALID,918.28,VALID,0,VALID,97.5721,VALID,0,VALID,19.0203,VALID,108,VALID,1.11211,
2012-02-06, 00:08:05,VALID,918.28,VALID,0,VALID,97.5721,VALID,0,VALID,19.0218,VALID,125,VALID,1.08711,
2012-02-06, 00:09:05,VALID,918.26,VALID,0,VALID,97.5873,VALID,0,VALID,19.0008,VALID,126,VALID,1.12305,
2012-02-06, 00:10:05,VALID,918.251,VALID,0,VALID,97.5721,VALID,0,VALID,19.0008,VALID,125,VALID,1.03477,
2012-02-06, 00:11:05,VALID,918.226,VALID,0,VALID,97.5797,VALID,0,VALID,19.0203,VALID,125,VALID,0.986719,
2012-02-06, 00:12:05,VALID,918.212,VALID,0,VALID,97.6178,VALID,0,VALID,19.0398,VALID,126,VALID,1.1875,
2012-02-06, 00:13:05,VALID,918.213,VALID,0,VALID,97.6255,VALID,0,VALID,19.0398,VALID,125,VALID,1.0918,
2012-02-06, 00:14:05,VALID,918.203,VALID,0,VALID,97.6178,VALID,0,VALID,19.0398,VALID,125,VALID,1.12578,
2012-02-06, 00:15:05,VALID,918.188,VALID,0,VALID,97.5797,VALID,0.107441,VALID,19.0203,VALID,126,VALID,0.760547,
2012-02-06, 00:16:05,VALID,918.205,VALID,0,VALID,97.5645,VALID,0,VALID,19.0008,VALID,125,VALID,0.560938,
2012-02-06, 00:17:05,VALID,918.174,VALID,0,VALID,97.5645,VALID,0,VALID,18.9619,VALID,125,VALID,0.660937,
2012-02-06, 00:18:05,VALID,918.205,VALID,0,VALID,97.5721,VALID,0,VALID,18.9619,VALID,125,VALID,0.871484,
2012-02-06, 00:19:05,VALID,918.186,VALID,0,VALID,97.5645,VALID,0.107441,VALID,18.9229,VALID,125,VALID,0.762109,
2012-02-06, 00:20:05,VALID,918.178,VALID,0,VALID,97.595,VALID,0.107441,VALID,18.9229,VALID,125,VALID,0.883594,
2012-02-06, 00:21:05,VALID,918.176,VALID,0,VALID,97.5492,VALID,0,VALID,18.8839,VALID,79,VALID,0.989453,
2012-02-06, 00:22:05,VALID,918.18,VALID,0,VALID,97.5569,VALID,0,VALID,18.8839,VALID,80,VALID,0.859375,
2012-02-06, 00:23:05,VALID,918.181,VALID,0,VALID,97.5873,VALID,0,VALID,18.8449,VALID,88,VALID,0.799609,
2012-02-06, 00:24:05,VALID,918.166,VALID,0,VALID,97.595,VALID,0,VALID,18.8449,VALID,88,VALID,0.740625,
2012-02-06, 00:25:05,VALID,918.157,VALID,0,VALID,97.6178,VALID,0,VALID,18.824,VALID,112,VALID,0.628125,
2012-02-06, 00:26:05,VALID,918.158,VALID,0,VALID,97.5873,VALID,0,VALID,18.8045,VALID,112,VALID,0.610937,
2012-02-06, 00:27:05,VALID,918.143,VALID,0,VALID,97.6255,VALID,0,VALID,18.8254,VALID,112,VALID,0.763672,
2012-02-06, 00:28:05,VALID,918.168,VALID,0,VALID,97.6712,VALID,0,VALID,18.824,VALID,112,VALID,0.862109,
2012-02-06, 00:29:05,VALID,918.157,VALID,0,VALID,97.6255,VALID,0,VALID,18.8059,VALID,112,VALID,0.744531,
2012-02-06, 00:30:05,VALID,918.164,VALID,0,VALID,97.6636,VALID,0,VALID,18.8254,VALID,112,VALID,1.00078,
2012-02-06, 00:31:05,VALID,918.163,VALID,0,VALID,97.6788,VALID,0,VALID,18.8644,VALID,112,VALID,0.957031,
2012-02-06, 00:32:05,VALID,918.19,VALID,0,VALID,97.6712,VALID,0,VALID,18.8853,VALID,112,VALID,0.757031,
2012-02-06, 00:33:05,VALID,918.168,VALID,0,VALID,97.656,VALID,0,VALID,18.8449,VALID,112,VALID,0.613672,
2012-02-06, 00:34:05,VALID,918.154,VALID,0,VALID,97.6712,VALID,0,VALID,18.8449,VALID,112,VALID,0.65,
2012-02-06, 00:35:05,VALID,918.168,VALID,0,VALID,97.6865,VALID,0,VALID,18.8644,VALID,112,VALID,0.741016,
2012-02-06, 00:36:05,VALID,918.162,VALID,0,VALID,97.6483,VALID,0.107441,VALID,18.8449,VALID,112,VALID,0.539844,
2012-02-06, 00:37:05,VALID,918.128,VALID,0,VALID,97.6483,VALID,0,VALID,18.8254,VALID,112,VALID,0.435937,
2012-02-06, 00:38:05,VALID,918.101,VALID,0,VALID,97.5873,VALID,0,VALID,18.7669,VALID,112,VALID,0.525781,
2012-02-06, 00:39:05,VALID,918.08,VALID,0,VALID,97.6255,VALID,0,VALID,18.7474,VALID,112,VALID,0.755859,
2012-02-06, 00:40:05,VALID,918.028,VALID,0,VALID,97.7093,VALID,0,VALID,18.7864,VALID,112,VALID,0.940625,
2012-02-06, 00:41:05,VALID,918.012,VALID,0,VALID,97.7093,VALID,0,VALID,18.7864,VALID,112,VALID,0.664063,
2012-02-06, 00:42:05,VALID,917.957,VALID,0,VALID,97.5035,VALID,0,VALID,18.6889,VALID,112,VALID,0.43125,
2012-02-06, 00:43:05,VALID,917.949,VALID,0,VALID,97.6331,VALID,0,VALID,18.6499,VALID,112,VALID,0.466406,
2012-02-06, 00:44:05,VALID,917.915,VALID,0,VALID,97.7398,VALID,0.107441,VALID,18.6889,VALID,112,VALID,0.40625,
2012-02-06, 00:45:05,VALID,917.901,VALID,0,VALID,97.6941,VALID,0,VALID,18.6903,VALID,112,VALID,0.205469,
2012-02-06, 00:46:05,VALID,917.915,VALID,0,VALID,97.7017,VALID,0,VALID,18.6889,VALID,112,VALID,0.0328125,
2012-02-06, 00:47:05,VALID,917.923,VALID,0,VALID,97.6865,VALID,0,VALID,18.6694,VALID,112,VALID,0,
2012-02-06, 00:48:05,VALID,917.935,VALID,0,VALID,97.6941,VALID,0.107441,VALID,18.6485,VALID,112,VALID,0.0734375,
2012-02-06, 00:49:05,VALID,917.967,VALID,0,VALID,97.6865,VALID,0,VALID,18.6304,VALID,112,VALID,0.071875,
2012-02-06, 00:50:05,VALID,917.972,VALID,0,VALID,97.6788,VALID,0,VALID,18.6304,VALID,112,VALID,0,
2012-02-06, 00:51:05,VALID,917.989,VALID,0,VALID,97.7017,VALID,0.107441,VALID,18.59,VALID,112,VALID,0,
2012-02-06, 00:52:05,VALID,917.957,VALID,0,VALID,97.6712,VALID,0,VALID,18.5929,VALID,112,VALID,0,
2012-02-06, 00:53:05,VALID,917.983,VALID,0,VALID,97.6865,VALID,0,VALID,18.5705,VALID,112,VALID,0,
2012-02-06, 00:54:05,VALID,917.994,VALID,0,VALID,97.7017,VALID,0,VALID,18.6109,VALID,112,VALID,0,
2012-02-06, 00:55:05,VALID,917.965,VALID,0,VALID,97.7246,VALID,0,VALID,18.6304,VALID,112,VALID,0,
2012-02-06, 00:56:05,VALID,917.947,VALID,0,VALID,97.7246,VALID,0,VALID,18.6513,VALID,112,VALID,0,
2012-02-06, 00:57:05,VALID,917.925,VALID,0,VALID,97.7398,VALID,0,VALID,18.6499,VALID,112,VALID,0,
2012-02-06, 00:58:05,VALID,917.933,VALID,0,VALID,97.7703,VALID,0,VALID,18.6694,VALID,112,VALID,0,
2012-02-06, 00:59:05,VALID,917.95,VALID,0,VALID,97.7627,VALID,0,VALID,18.6889,VALID,112,VALID,0,
2012-02-06, 01:00:05,VALID,917.926,VALID,0,VALID,97.7474,VALID,0,VALID,18.7084,VALID,112,VALID,0,
2012-02-06, 01:01:05,VALID,917.933,VALID,0,VALID,97.7474,VALID,0,VALID,18.7084,VALID,112,VALID,0,
2012-02-06, 01:02:05,VALID,917.903,VALID,0,VALID,97.7093,VALID,0,VALID,18.6694,VALID,112,VALID,0,
2012-02-06, 01:03:05,VALID,917.879,VALID,0,VALID,97.7017,VALID,0,VALID,18.6319,VALID,112,VALID,0.176953,
2012-02-06, 01:04:05,VALID,917.88,VALID,0,VALID,97.7322,VALID,0,VALID,18.6304,VALID,112,VALID,0.195703,
2012-02-06, 01:05:05,VALID,917.84,VALID,0,VALID,97.7169,VALID,0,VALID,18.6304,VALID,112,VALID,0.379297,
2012-02-06, 01:06:05,VALID,917.854,VALID,0,VALID,97.7398,VALID,0,VALID,18.6499,VALID,112,VALID,0.41875,
2012-02-06, 01:07:05,VALID,917.853,VALID,0,VALID,97.7474,VALID,0,VALID,18.6499,VALID,112,VALID,0.507422,
2012-02-06, 01:08:05,VALID,917.839,VALID,0,VALID,97.7627,VALID,0,VALID,18.6304,VALID,112,VALID,0.535156,
2012-02-06, 01:09:05,VALID,917.813,VALID,0,VALID,97.7627,VALID,0,VALID,18.6109,VALID,112,VALID,0.562891,
2012-02-06, 01:10:05,VALID,917.835,VALID,0,VALID,97.7627,VALID,0,VALID,18.6513,VALID,112,VALID,0.739062,
2012-02-06, 01:11:05,VALID,917.815,VALID,0,VALID,97.7551,VALID,0,VALID,18.6513,VALID,112,VALID,0.745313,
2012-02-06, 01:12:05,VALID,917.801,VALID,0,VALID,97.7551,VALID,0,VALID,18.572,VALID,112,VALID,0.866016,
2012-02-06, 01:13:05,VALID,917.809,VALID,0,VALID,97.7856,VALID,0,VALID,18.572,VALID,112,VALID,0.967969,
2012-02-06, 01:14:05,VALID,917.813,VALID,0,VALID,97.7779,VALID,0,VALID,18.6513,VALID,112,VALID,0.968359,
2012-02-06, 01:15:05,VALID,917.788,VALID,0,VALID,97.7703,VALID,0,VALID,18.6694,VALID,112,VALID,0.942187,
2012-02-06, 01:16:05,VALID,917.789,VALID,0,VALID,97.7703,VALID,0,VALID,18.7084,VALID,112,VALID,0.796875,
2012-02-06, 01:17:05,VALID,917.816,VALID,0,VALID,97.7779,VALID,0,VALID,18.7488,VALID,112,VALID,0.655859,
2012-02-06, 01:18:05,VALID,917.802,VALID,0,VALID,97.8008,VALID,0,VALID,18.7084,VALID,112,VALID,0.802344,
2012-02-06, 01:19:05,VALID,917.769,VALID,0,VALID,97.7779,VALID,0,VALID,18.6889,VALID,112,VALID,0.792578,
2012-02-06, 01:20:05,VALID,917.755,VALID,0,VALID,97.8084,VALID,0,VALID,18.7279,VALID,112,VALID,1.1293,
2012-02-06, 01:21:05,VALID,917.761,VALID,0,VALID,97.7779,VALID,0,VALID,18.7683,VALID,102,VALID,1.14648,
2012-02-06, 01:22:05,VALID,917.751,VALID,0,VALID,97.7856,VALID,0,VALID,18.7474,VALID,102,VALID,1.16055,
2012-02-06, 01:23:05,VALID,917.76,VALID,0,VALID,97.8008,VALID,0,VALID,18.7669,VALID,102,VALID,1.10703,
2012-02-06, 01:24:05,VALID,917.772,VALID,0,VALID,97.7703,VALID,0,VALID,18.7474,VALID,102,VALID,1.03516,
2012-02-06, 01:25:05,VALID,917.779,VALID,0,VALID,97.7932,VALID,0,VALID,18.6889,VALID,103,VALID,1.02422,
2012-02-06, 01:26:05,VALID,917.809,VALID,0,VALID,97.7856,VALID,0,VALID,18.6513,VALID,102,VALID,0.725781,
2012-02-06, 01:27:05,VALID,917.787,VALID,0,VALID,97.7703,VALID,0,VALID,18.6319,VALID,103,VALID,0.661719,
2012-02-06, 01:28:05,VALID,917.8,VALID,0,VALID,97.7779,VALID,0,VALID,18.6319,VALID,102,VALID,0.874219,
2012-02-06, 01:29:05,VALID,917.782,VALID,0,VALID,97.7779,VALID,0,VALID,18.6109,VALID,123,VALID,0.728516,
2012-02-06, 01:30:05,VALID,917.778,VALID,0,VALID,97.7703,VALID,0,VALID,18.5914,VALID,130,VALID,1.07344,
2012-02-06, 01:31:05,VALID,917.775,VALID,0,VALID,97.7703,VALID,0,VALID,18.572,VALID,130,VALID,0.898047,
2012-02-06, 01:32:05,VALID,917.744,VALID,0,VALID,97.7932,VALID,0,VALID,18.572,VALID,130,VALID,0.813281,
2012-02-06, 01:33:05,VALID,917.723,VALID,0,VALID,97.7779,VALID,0,VALID,18.5734,VALID,130,VALID,0.511719,
2012-02-06, 01:34:05,VALID,917.718,VALID,0,VALID,97.7856,VALID,0,VALID,18.5525,VALID,130,VALID,0.498047,
2012-02-06, 01:35:05,VALID,917.708,VALID,0,VALID,97.7779,VALID,0,VALID,18.5525,VALID,130,VALID,0.4375,
2012-02-06, 01:36:05,VALID,917.713,VALID,0,VALID,97.8084,VALID,0,VALID,18.5734,VALID,130,VALID,0.100391,
2012-02-06, 01:37:05,VALID,917.713,VALID,0,VALID,97.8008,VALID,0,VALID,18.533,VALID,130,VALID,0.305469,
2012-02-06, 01:38:05,VALID,917.705,VALID,0,VALID,97.7856,VALID,0,VALID,18.494,VALID,130,VALID,0.444141,
2012-02-06, 01:39:05,VALID,917.713,VALID,0,VALID,97.8237,VALID,0,VALID,18.5149,VALID,130,VALID,0.544531,
2012-02-06, 01:40:05,VALID,917.681,VALID,0,VALID,97.7779,VALID,0,VALID,18.5135,VALID,130,VALID,0.545313,
2012-02-06, 01:41:05,VALID,917.627,VALID,0,VALID,97.8008,VALID,0,VALID,18.5149,VALID,130,VALID,0.699219,
2012-02-06, 01:42:05,VALID,917.629,VALID,0,VALID,97.8008,VALID,0,VALID,18.494,VALID,130,VALID,0.888281,
2012-02-06, 01:43:05,VALID,917.617,VALID,0,VALID,97.8237,VALID,0,VALID,18.5525,VALID,126,VALID,1.08086,
2012-02-06, 01:44:05,VALID,917.587,VALID,0,VALID,97.816,VALID,0,VALID,18.6109,VALID,119,VALID,1.03242,
2012-02-06, 01:45:05,VALID,917.603,VALID,0,VALID,97.8389,VALID,0,VALID,18.6109,VALID,119,VALID,1.08203,
2012-02-06, 01:46:05,VALID,917.588,VALID,0,VALID,97.8237,VALID,0,VALID,18.5914,VALID,119,VALID,0.851953,
2012-02-06, 01:47:05,VALID,917.593,VALID,0,VALID,97.8389,VALID,0,VALID,18.6109,VALID,119,VALID,0.934375,
2012-02-06, 01:48:04,VALID,917.562,VALID,0,VALID,97.8313,VALID,0,VALID,18.6109,VALID,119,VALID,0.613281,
2012-02-06, 01:49:04,VALID,917.563,VALID,0,VALID,97.8313,VALID,0,VALID,18.5914,VALID,119,VALID,0.603906,
2012-02-06, 01:50:04,VALID,917.532,VALID,0,VALID,97.8084,VALID,0,VALID,18.5914,VALID,119,VALID,0.876562,
2012-02-06, 01:51:04,VALID,917.528,VALID,0,VALID,97.8237,VALID,0,VALID,18.5914,VALID,119,VALID,0.975,
2012-02-06, 01:52:04,VALID,917.558,VALID,0,VALID,97.8237,VALID,0,VALID,18.5914,VALID,119,VALID,0.616797,
2012-02-06, 01:53:04,VALID,917.526,VALID,0,VALID,97.8313,VALID,0,VALID,18.5929,VALID,138,VALID,0.887109,
2012-02-06, 01:54:04,VALID,917.544,VALID,0,VALID,97.816,VALID,0,VALID,18.572,VALID,138,VALID,0.769141,
2012-02-06, 01:55:04,VALID,917.542,VALID,0,VALID,97.816,VALID,0,VALID,18.572,VALID,138,VALID,0.505469,
2012-02-06, 01:56:04,VALID,917.557,VALID,0,VALID,97.8237,VALID,0,VALID,18.5929,VALID,138,VALID,0.457031,
2012-02-06, 01:57:04,VALID,917.557,VALID,0,VALID,97.8237,VALID,0,VALID,18.5929,VALID,138,VALID,0.526172,
2012-02-06, 01:58:04,VALID,917.57,VALID,0,VALID,97.816,VALID,0,VALID,18.6124,VALID,138,VALID,0.413672,
2012-02-06, 01:59:04,VALID,917.57,VALID,0,VALID,97.8389,VALID,0,VALID,18.5316,VALID,138,VALID,0.046875,
2012-02-06, 02:00:04,VALID,917.602,VALID,0,VALID,97.8084,VALID,0,VALID,18.5316,VALID,138,VALID,0,
2012-02-06, 02:01:04,VALID,917.566,VALID,0,VALID,97.8237,VALID,0,VALID,18.5539,VALID,138,VALID,0.517187,
2012-02-06, 02:02:04,VALID,917.585,VALID,0,VALID,97.8313,VALID,0,VALID,18.533,VALID,138,VALID,0.571875,
2012-02-06, 02:03:04,VALID,917.591,VALID,0,VALID,97.8389,VALID,0,VALID,18.5525,VALID,138,VALID,0.812109,
2012-02-06, 02:04:04,VALID,917.556,VALID,0,VALID,97.8389,VALID,0,VALID,18.5525,VALID,138,VALID,0.809766,
2012-02-06, 02:05:04,VALID,917.562,VALID,0,VALID,97.8389,VALID,0,VALID,18.533,VALID,138,VALID,0.836328,
2012-02-06, 02:06:04,VALID,917.534,VALID,0,VALID,97.8465,VALID,0,VALID,18.494,VALID,111,VALID,0.779688,
2012-02-06, 02:07:04,VALID,917.536,VALID,0,VALID,97.8465,VALID,0,VALID,18.5135,VALID,111,VALID,0.994141,
2012-02-06, 02:08:04,VALID,917.5,VALID,0,VALID,97.8465,VALID,0,VALID,18.5135,VALID,111,VALID,1.05586,
2012-02-06, 02:09:04,VALID,917.497,VALID,0,VALID,97.8313,VALID,0,VALID,18.5135,VALID,111,VALID,1.24023,
2012-02-06, 02:10:04,VALID,917.448,VALID,0,VALID,97.8389,VALID,0,VALID,18.5135,VALID,111,VALID,1.02266,
2012-02-06, 02:11:04,VALID,917.396,VALID,0,VALID,97.8542,VALID,0,VALID,18.5135,VALID,111,VALID,1.39766,
2012-02-06, 02:12:04,VALID,917.411,VALID,0,VALID,97.8465,VALID,0,VALID,18.5344,VALID,111,VALID,1.00586,
2012-02-06, 02:13:04,VALID,917.374,VALID,0,VALID,97.8465,VALID,0,VALID,18.4745,VALID,111,VALID,0.971484,
2012-02-06, 02:14:04,VALID,917.349,VALID,0,VALID,97.8465,VALID,0,VALID,18.494,VALID,111,VALID,0.939453,
2012-02-06, 02:15:04,VALID,917.339,VALID,0,VALID,97.8542,VALID,0,VALID,18.5135,VALID,111,VALID,1.02461,
2012-02-06, 02:16:04,VALID,917.337,VALID,0,VALID,97.8542,VALID,0,VALID,18.4745,VALID,111,VALID,0.507813,
2012-02-06, 02:17:04,VALID,917.31,VALID,0,VALID,97.8542,VALID,0,VALID,18.455,VALID,111,VALID,0.685156,
2012-02-06, 02:18:04,VALID,917.284,VALID,0,VALID,97.8465,VALID,0,VALID,18.4564,VALID,111,VALID,0.694141,
2012-02-06, 02:19:04,VALID,917.245,VALID,0,VALID,97.877,VALID,0,VALID,18.4745,VALID,111,VALID,1.09609,
2012-02-06, 02:20:04,VALID,917.273,VALID,0,VALID,97.877,VALID,0,VALID,18.494,VALID,111,VALID,1.03594,
2012-02-06, 02:21:04,VALID,917.237,VALID,0,VALID,97.8618,VALID,0,VALID,18.4759,VALID,119,VALID,1.18281,
2012-02-06, 02:22:04,VALID,917.251,VALID,0,VALID,97.877,VALID,0,VALID,18.3965,VALID,131,VALID,0.937891,
2012-02-06, 02:23:04,VALID,917.245,VALID,0,VALID,97.8542,VALID,0,VALID,18.4369,VALID,131,VALID,0.624609,
2012-02-06, 02:24:04,VALID,917.229,VALID,0,VALID,97.8313,VALID,0,VALID,18.3979,VALID,131,VALID,0.529297,
2012-02-06, 02:25:04,VALID,917.278,VALID,0,VALID,97.8313,VALID,0,VALID,18.3185,VALID,131,VALID,0.355469,
2012-02-06, 02:26:04,VALID,917.303,VALID,0,VALID,97.8618,VALID,0,VALID,18.3185,VALID,131,VALID,0.555859,
2012-02-06, 02:27:04,VALID,917.328,VALID,0,VALID,97.8542,VALID,0,VALID,18.3784,VALID,131,VALID,0.741797,
2012-02-06, 02:28:04,VALID,917.347,VALID,0,VALID,97.8618,VALID,0,VALID,18.3575,VALID,131,VALID,0.403125,
2012-02-06, 02:29:04,VALID,917.354,VALID,0,VALID,97.8465,VALID,0,VALID,18.3979,VALID,131,VALID,0.375,
2012-02-06, 02:30:04,VALID,917.339,VALID,0,VALID,97.8618,VALID,0,VALID,18.3965,VALID,131,VALID,0.299219,
2012-02-06, 02:31:04,VALID,917.332,VALID,0,VALID,97.8847,VALID,0,VALID,18.416,VALID,131,VALID,0.242578,
2012-02-06, 02:32:04,VALID,917.304,VALID,0,VALID,97.8694,VALID,0,VALID,18.4745,VALID,131,VALID,0.114063,
2012-02-06, 02:33:04,VALID,917.302,VALID,0,VALID,97.877,VALID,0,VALID,18.4564,VALID,131,VALID,0.446094,
2012-02-06, 02:34:04,VALID,917.275,VALID,0,VALID,97.8694,VALID,0,VALID,18.455,VALID,131,VALID,0.584375,
2012-02-06, 02:35:04,VALID,917.232,VALID,0,VALID,97.8694,VALID,0,VALID,18.416,VALID,131,VALID,0.314063,
2012-02-06, 02:36:04,VALID,917.243,VALID,0,VALID,97.8694,VALID,0,VALID,18.3784,VALID,131,VALID,0.626953,
2012-02-06, 02:37:04,VALID,917.228,VALID,0,VALID,97.877,VALID,0,VALID,18.377,VALID,131,VALID,0.333984,
2012-02-06, 02:38:04,VALID,917.213,VALID,0,VALID,97.8618,VALID,0,VALID,18.3575,VALID,131,VALID,0.301562,
2012-02-06, 02:39:04,VALID,917.209,VALID,0,VALID,97.8923,VALID,0,VALID,18.3589,VALID,131,VALID,0.551562,
2012-02-06, 02:40:04,VALID,917.174,VALID,0,VALID,97.9075,VALID,0,VALID,18.3185,VALID,131,VALID,0.299609,
2012-02-06, 02:41:04,VALID,917.187,VALID,0,VALID,97.8847,VALID,0,VALID,18.338,VALID,131,VALID,0.487109,
2012-02-06, 02:42:04,VALID,917.212,VALID,0,VALID,97.9075,VALID,0,VALID,18.338,VALID,131,VALID,0.342578,
2012-02-06, 02:43:04,VALID,917.173,VALID,0,VALID,97.8618,VALID,0,VALID,18.3185,VALID,131,VALID,0.457422,
2012-02-06, 02:44:04,VALID,917.158,VALID,0,VALID,97.8999,VALID,0,VALID,18.299,VALID,131,VALID,0.621094,
2012-02-06, 02:45:04,VALID,917.117,VALID,0,VALID,97.9075,VALID,0,VALID,18.3004,VALID,131,VALID,0.456641,
2012-02-06, 02:46:04,VALID,917.089,VALID,0,VALID,97.8999,VALID,0,VALID,18.2406,VALID,131,VALID,0.406641,
2012-02-06, 02:47:04,VALID,917.077,VALID,0,VALID,97.8923,VALID,0,VALID,18.2615,VALID,131,VALID,0.368359,
2012-02-06, 02:48:04,VALID,917.044,VALID,0,VALID,97.877,VALID,0,VALID,18.2809,VALID,131,VALID,0.542969,
2012-02-06, 02:49:04,VALID,917.073,VALID,0,VALID,97.8923,VALID,0,VALID,18.2615,VALID,131,VALID,0.442578,
2012-02-06, 02:50:04,VALID,917.071,VALID,0,VALID,97.9075,VALID,0,VALID,18.3199,VALID,131,VALID,0.272656,
2012-02-06, 02:51:04,VALID,917.061,VALID,0,VALID,97.9075,VALID,0,VALID,18.3784,VALID,131,VALID,0.514844,
2012-02-06, 02:52:04,VALID,917.076,VALID,0,VALID,97.8999,VALID,0,VALID,18.4954,VALID,131,VALID,0.344141,
2012-02-06, 02:53:04,VALID,917.06,VALID,0,VALID,97.8999,VALID,0,VALID,18.533,VALID,131,VALID,0,
2012-02-06, 02:54:04,VALID,917.028,VALID,0,VALID,97.9533,VALID,0,VALID,18.5539,VALID,131,VALID,0,
2012-02-06, 02:55:04,VALID,917.051,VALID,0,VALID,97.9304,VALID,0,VALID,18.6319,VALID,131,VALID,0.345703,
2012-02-06, 02:56:04,VALID,917.034,VALID,0,VALID,97.9228,VALID,0,VALID,18.6304,VALID,131,VALID,0.335156,
2012-02-06, 02:57:04,VALID,917.046,VALID,0,VALID,97.9533,VALID,0,VALID,18.6319,VALID,131,VALID,0.366016,
2012-02-06, 02:58:04,VALID,917.066,VALID,0,VALID,97.938,VALID,0,VALID,18.6499,VALID,131,VALID,0.546094,
2012-02-06, 02:59:04,VALID,917.039,VALID,0,VALID,97.938,VALID,0,VALID,18.6694,VALID,131,VALID,0.605859,
2012-02-06, 03:00:04,VALID,917.06,VALID,0,VALID,97.9152,VALID,0,VALID,18.6499,VALID,131,VALID,0.469531,
2012-02-06, 03:01:04,VALID,917.026,VALID,0,VALID,97.9228,VALID,0,VALID,18.6499,VALID,131,VALID,0.649219,
2012-02-06, 03:02:04,VALID,917.005,VALID,0,VALID,97.938,VALID,0,VALID,18.6304,VALID,131,VALID,0.758984,
2012-02-06, 03:03:04,VALID,916.986,VALID,0,VALID,97.9152,VALID,0,VALID,18.6708,VALID,131,VALID,0.670313,
2012-02-06, 03:04:04,VALID,916.985,VALID,0,VALID,97.9228,VALID,0.107441,VALID,18.6304,VALID,131,VALID,0.632031,
2012-02-06, 03:05:04,VALID,916.972,VALID,0,VALID,97.9304,VALID,0,VALID,18.5511,VALID,131,VALID,0.477344,
2012-02-06, 03:06:04,VALID,916.958,VALID,0,VALID,97.9152,VALID,0,VALID,18.533,VALID,131,VALID,0.320313,
2012-02-06, 03:07:04,VALID,916.933,VALID,0,VALID,97.9075,VALID,0,VALID,18.4731,VALID,131,VALID,0.809766,
2012-02-06, 03:08:04,VALID,916.917,VALID,0,VALID,97.9228,VALID,0,VALID,18.4745,VALID,131,VALID,0.526172,
2012-02-06, 03:09:04,VALID,916.949,VALID,0,VALID,97.9152,VALID,0,VALID,18.4355,VALID,131,VALID,0.581641,
2012-02-06, 03:10:04,VALID,916.909,VALID,0,VALID,97.9075,VALID,0,VALID,18.416,VALID,131,VALID,0.523047,
2012-02-06, 03:11:04,VALID,916.862,VALID,0,VALID,97.8999,VALID,0,VALID,18.377,VALID,131,VALID,0.935547,
2012-02-06, 03:12:04,VALID,916.875,VALID,0,VALID,97.9304,VALID,0,VALID,18.338,VALID,131,VALID,0.793359,
2012-02-06, 03:13:04,VALID,916.822,VALID,0,VALID,97.9152,VALID,0,VALID,18.3408,VALID,131,VALID,0.821484,
2012-02-06, 03:14:04,VALID,916.793,VALID,0,VALID,97.9152,VALID,0,VALID,18.3394,VALID,117,VALID,0.899609,
2012-02-06, 03:15:04,VALID,916.811,VALID,0,VALID,97.9152,VALID,0,VALID,18.3185,VALID,99,VALID,1.30977,
2012-02-06, 03:16:04,VALID,916.784,VALID,0,VALID,97.8999,VALID,0,VALID,18.3199,VALID,92,VALID,0.799219,
2012-02-06, 03:17:04,VALID,916.783,VALID,0,VALID,97.9075,VALID,0,VALID,18.3394,VALID,112,VALID,0.880469,
2012-02-06, 03:18:04,VALID,916.818,VALID,0,VALID,97.9152,VALID,0,VALID,18.3394,VALID,112,VALID,1.19414,
2012-02-06, 03:19:04,VALID,916.809,VALID,0,VALID,97.9304,VALID,0,VALID,18.3784,VALID,112,VALID,1.16055,
2012-02-06, 03:20:04,VALID,916.788,VALID,0,VALID,97.938,VALID,0,VALID,18.3784,VALID,112,VALID,1.02695,
2012-02-06, 03:21:04,VALID,916.802,VALID,0,VALID,97.9228,VALID,0,VALID,18.4174,VALID,112,VALID,1.08164,
2012-02-06, 03:22:04,VALID,916.783,VALID,0,VALID,97.9456,VALID,0,VALID,18.4564,VALID,133,VALID,1.14297,
2012-02-06, 03:23:04,VALID,916.791,VALID,0,VALID,97.938,VALID,0,VALID,18.416,VALID,133,VALID,0.862109,
2012-02-06, 03:24:04,VALID,916.744,VALID,0,VALID,97.9609,VALID,0,VALID,18.4564,VALID,133,VALID,1.28945,
2012-02-06, 03:25:04,VALID,916.75,VALID,0,VALID,97.9456,VALID,0,VALID,18.4369,VALID,133,VALID,0.648828,
2012-02-06, 03:26:04,VALID,916.741,VALID,0,VALID,97.9533,VALID,0,VALID,18.4369,VALID,133,VALID,0.745313,
2012-02-06, 03:27:04,VALID,916.723,VALID,0,VALID,97.9304,VALID,0,VALID,18.3965,VALID,133,VALID,0.569141,
2012-02-06, 03:28:04,VALID,916.713,VALID,0,VALID,97.9456,VALID,0,VALID,18.416,VALID,119,VALID,1.225,
2012-02-06, 03:29:04,VALID,916.727,VALID,0,VALID,97.938,VALID,0,VALID,18.4564,VALID,140,VALID,1.08398,
2012-02-06, 03:30:04,VALID,916.706,VALID,0,VALID,97.9456,VALID,0,VALID,18.4369,VALID,140,VALID,0.776172,
2012-02-06, 03:31:04,VALID,916.737,VALID,0,VALID,97.9456,VALID,0,VALID,18.4564,VALID,139,VALID,0.739844,
2012-02-06, 03:32:04,VALID,916.762,VALID,0,VALID,97.9533,VALID,0,VALID,18.4759,VALID,140,VALID,0.844531,
2012-02-06, 03:33:04,VALID,916.78,VALID,0,VALID,97.9533,VALID,0,VALID,18.4954,VALID,140,VALID,0.195313,
2012-02-06, 03:34:04,VALID,916.782,VALID,0,VALID,97.9609,VALID,0,VALID,18.4954,VALID,140,VALID,0.821484,
2012-02-06, 03:35:04,VALID,916.813,VALID,0,VALID,97.938,VALID,0,VALID,18.4954,VALID,140,VALID,0.236328,
2012-02-06, 03:36:04,VALID,916.78,VALID,0,VALID,97.9533,VALID,0,VALID,18.4954,VALID,140,VALID,0.491016,
2012-02-06, 03:37:04,VALID,916.807,VALID,0,VALID,97.9533,VALID,0,VALID,18.5149,VALID,140,VALID,0.0640625,
2012-02-06, 03:38:04,VALID,916.793,VALID,0,VALID,97.9456,VALID,0,VALID,18.5135,VALID,140,VALID,0.21875,
2012-02-06, 03:39:04,VALID,916.788,VALID,0,VALID,97.938,VALID,0,VALID,18.5344,VALID,140,VALID,0.4625,
2012-02-06, 03:40:04,VALID,916.762,VALID,0,VALID,97.9609,VALID,0,VALID,18.4954,VALID,140,VALID,0.6125,
2012-02-06, 03:41:04,VALID,916.748,VALID,0,VALID,97.938,VALID,0,VALID,18.4954,VALID,140,VALID,0.921094,
2012-02-06, 03:42:04,VALID,916.752,VALID,0,VALID,97.9609,VALID,0,VALID,18.5149,VALID,128,VALID,1.13047,
2012-02-06, 03:43:04,VALID,916.725,VALID,0,VALID,97.9456,VALID,0,VALID,18.5539,VALID,114,VALID,1.18633,
2012-02-06, 03:44:04,VALID,916.731,VALID,0,VALID,97.9533,VALID,0,VALID,18.5734,VALID,114,VALID,1.20352,
2012-02-06, 03:45:04,VALID,916.718,VALID,0,VALID,97.9533,VALID,0,VALID,18.6124,VALID,123,VALID,1.39688,